Effective Sunday, March 17, 2024, the National Weather Service National Data Buoy Center will discontinue its Dial-A-Buoy Interactive Voice Response system. For more information, see Service Change Notice 24-06 (PDF).

Station LQAT2 - La Quinta, TX MET (8775132) Image indicating link to RSS feed of recent meteorological observations for station LQAT2


Conditions at LQAT2 as of
(3:48 am CST)
0948 GMT on 02/26/2024:
     

Click on the graph icon in the table below to see a time series plot of the last five days of that observation.

5-day plot - Wind Direction Wind Direction (WDIR):SSE ( 160 deg true )
5-day plot - Wind Speed Wind Speed (WSPD): 9 kts
5-day plot - Wind Gust Wind Gust (GST): 11 kts
5-day plot - Atmospheric Pressure Atmospheric Pressure (PRES):29.96 in
5-day plot - Air Temperature Air Temperature (ATMP): 66.0 °F
5-day plot - Water Temperature Water Temperature (WTMP): 67.5 °F
5-day plot - Dew Point Dew Point (DEWP): 66.0 °F
5-day plot - Visibility Visibility (VIS): 4.9 nmi
5-day plot -  Wind Speed, Wind Gust and Atmospheric Pressure Combined plot of Wind Speed, Gust, and Air Pressure
Previous observations
TIME
(CST)
5-day plot - Wind Direction
WDIR
 
5-day plot - Wind Speed
WSPD
kts
5-day plot - Wind Gust
GST
kts
5-day plot - Wave Height
WVHT
ft
5-day plot - Dominant Wave Period
DPD
sec
5-day plot - Average Wave Period
APD
sec
5-day plot - Mean Wave Direction
MWD
 
5-day plot - Atmospheric Pressure
PRES
in
5-day plot - Pressure Tendency
PTDY
in
5-day plot - Air Temperature
ATMP
°F
5-day plot - Water Temperature
WTMP
°F
5-day plot - Dew Point
DEWP
°F
5-day plot - Salinity
SAL
psu
5-day plot - Visibility
VIS
nmi
5-day plot - Tide (above MLLW)
TIDE
ft
2024-02-26 03:42 am S 10 11----29.96- 66.0 67.5 66.0- 5.9-
2024-02-26 03:36 amSSE 9 10----29.96- 66.2 67.5 66.2- 5.9-
2024-02-26 03:30 am S 8 11----29.97- 66.2 67.5 66.2- 5.9-
2024-02-26 03:24 amSSE 9 10----29.97- 66.2 67.5 66.2- 5.9-
2024-02-26 03:18 am S 9 10----29.97- 66.4 67.5 66.4- 5.9-
2024-02-26 03:12 am S 8 9----29.97- 66.4 67.5 66.4- 5.9-
2024-02-26 03:06 am S 8 9----29.97- 66.4 67.5 66.4- 5.9-
2024-02-26 03:00 am S 8 9----29.97-0.03 66.6 67.5 66.6- 5.9-
2024-02-26 02:54 amSSE 7 8----29.98- 66.6 67.5 66.6- 5.9-
2024-02-26 02:48 amSSE 6 8----29.98- 66.7 67.5 66.7- 5.9-
2024-02-26 02:42 am S 7 9----29.98- 66.9 67.5 66.9- 5.9-
2024-02-26 02:36 am S 7 8----29.98- 66.7 67.5 66.7- 5.9-
2024-02-26 02:30 am S 7 8----29.98- 66.7 67.5 66.7- 5.9-
2024-02-26 02:24 am S 6 8----29.98- 66.9 67.5 66.9- 5.9-
2024-02-26 02:18 am S 5 7----29.98- 66.9 67.5 66.9- 5.9-
2024-02-26 02:12 am S 5 7----29.99- 66.9 67.6 66.9- 5.9-
2024-02-26 02:06 am S 5 7----29.99- 67.1 67.6 67.1- 5.9-
2024-02-26 02:00 am S 4 7----29.99+0.00 67.1 67.6 67.1- 5.9-
2024-02-26 01:54 am S 6 7----29.99- 67.3 67.6 67.3- 5.9-
2024-02-26 01:48 am S 6 8----29.99- 67.3 67.6 67.3- 5.9-
2024-02-26 01:42 am S 5 7----29.99- 67.3 67.6 67.3- 5.9-
2024-02-26 01:36 am S 6 8----29.99- 67.3 67.6 67.3- 5.9-
2024-02-26 01:30 am S 5 8----29.99- 67.5 67.6 67.5- 5.9-
2024-02-26 01:24 am S 5 9----29.99- 67.5 67.6 67.5- 5.9-
2024-02-26 01:18 am S 6 10----29.99- 67.6 67.6 67.6- 5.9-
2024-02-26 01:12 am S 7 10----29.99- 67.6 67.6 67.6- 5.9-
2024-02-26 01:06 am S 7 10----29.99- 67.6 67.6 67.6- 5.9-
2024-02-26 01:00 am S 6 11----29.99+0.00 67.6 67.6 67.6- 5.9-
2024-02-26 12:54 am S 7 12----29.99- 67.6 67.6 67.6- 5.9-
2024-02-26 12:48 am S 8 11----29.99- 67.6 67.8 67.6- 5.9-
2024-02-26 12:42 amSSW 8 11----29.99- 67.6 67.6 67.6- 5.9-
2024-02-26 12:36 am S 8 11----29.99- 67.6 67.8 67.6- 5.9-
2024-02-26 12:30 am S 8 11----29.99- 67.6 67.8 67.6- 5.9-
2024-02-26 12:24 am S 8 12----29.99- 67.6 67.8 67.6- 5.9-
2024-02-26 12:18 amSSW 8 13----29.99- 67.8 67.8 67.8- 5.9-
2024-02-26 12:12 amSSW 7 11----30.00- 67.6 67.8 67.6- 5.9-
2024-02-26 12:06 am S 8 13----30.00- 67.8 67.8 67.8- 5.9-
2024-02-26 12:00 amSSW 8 12----30.00+0.01 67.8 67.8 67.8- 5.9-
2024-02-25 11:54 pmSSW 9 14----30.00- 68.0 67.8 68.0- 5.9-
2024-02-25 11:48 pmSSW 8 13----30.00- 67.8- 67.8- 5.9-
2024-02-25 11:42 pm S 9 13----30.01- 68.0 67.8 68.0- 5.9-
2024-02-25 11:36 pm S 9 13----30.01- 68.0 67.8 68.0- 5.9-
2024-02-25 11:30 pm S 9 14----30.00- 68.0 68.0 68.0- 5.9-
2024-02-25 11:24 pm S 10 14----30.00- 68.0 68.0 68.0- 5.9-
2024-02-25 11:18 pm S 10 15----30.00- 68.0 68.0 68.0- 5.9-
2024-02-25 11:12 pm S 11 16----30.00- 68.0 68.0 68.0- 5.9-
2024-02-25 11:06 pm S 11 17----30.00- 68.0 68.0 68.0- 5.9-
2024-02-25 11:00 pm S 12 18----30.00+0.03 68.2 68.0 68.2- 5.9-
2024-02-25 10:54 pm S 13 19----30.00- 68.2- 68.2- 5.9-
2024-02-25 10:48 pm S 12 19----30.00- 68.4 68.0 68.4- 5.9-
2024-02-25 10:42 pm S 12 19----30.00- 68.4 68.0 68.4- 5.9-
2024-02-25 10:36 pm S 13 19----30.00- 68.4 68.0 68.4- 5.9-
2024-02-25 10:30 pm S 12 17----30.00- 68.4 68.0 68.4- 5.9-
2024-02-25 10:24 pm S 13 19----30.00- 68.4 68.2 68.4- 5.9-
2024-02-25 10:18 pm S 13 17----30.00- 68.4 68.2 68.4- 5.9-
2024-02-25 10:12 pm S 13 17----29.99- 68.5 68.2 68.5- 5.9-
2024-02-25 10:06 pm S 15 21----29.99- 68.7 68.2 68.7- 5.9-
2024-02-25 10:00 pm S 14 20----29.99+0.03 68.7- 68.7- 5.9-
2024-02-25 09:54 pm S 14 21----29.98- 68.7 68.2 68.5- 5.9-
2024-02-25 09:48 pm S 13 19----29.99- 68.7 68.2 68.5- 5.9-
2024-02-25 09:42 pm S 15 20----29.99- 68.7 68.2 68.5- 5.9-
2024-02-25 09:36 pm S 15 22----29.99- 68.7 68.2 68.5- 5.9-
2024-02-25 09:30 pm S 15 22----29.98- 68.7 68.4 68.4- 5.9-
2024-02-25 09:24 pm S 15 23----29.98- 68.7 68.4 68.5- 5.9-
2024-02-25 09:18 pm S 15 20----29.98- 68.9 68.4 68.5- 5.9-
2024-02-25 09:12 pm S 17 23----29.98- 68.9 68.4 68.5- 5.9-
2024-02-25 09:06 pm S 16 21----29.98- 68.9 68.4 68.5- 5.9-
2024-02-25 09:00 pm S 16 24----29.98- 68.9 68.4 68.5- 5.9-
2024-02-25 08:54 pm S 18 24----29.98- 68.9 68.5 68.5- 5.9-
2024-02-25 08:48 pm S 19 23----29.98- 69.1- 68.5- 5.9-
2024-02-25 08:42 pm S 16 21----29.98- 68.9- 68.4- 5.9-
2024-02-25 08:36 pm S 16 22----29.98- 68.9- 68.5- 5.9-
2024-02-25 08:30 pm S 17 21----29.98- 68.7 68.7 68.2- 5.9-
2024-02-25 08:24 pm S 17 21----29.98- 68.7 68.9 68.4- 5.9-
2024-02-25 08:18 pm S 17 21----29.98- 68.7 69.3 68.4- 5.9-
2024-02-25 08:12 pm S 18 22----29.98- 68.9 69.4 68.5- 5.9-
2024-02-25 08:06 pm S 17 24----29.98- 68.9 69.4 68.4- 5.9-
2024-02-25 08:00 pm S 18 21----29.97+0.01 68.9 69.4 68.4- 5.9-
2024-02-25 07:54 pm S 18 22----29.97- 68.9 69.4 68.4- 5.9-
2024-02-25 07:48 pm S 18 21----29.97- 68.9 69.3 68.4- 5.9-
2024-02-25 07:42 pm S 18 21----29.97- 68.9 69.3 68.4- 5.9-
2024-02-25 07:36 pm S 17 22----29.96- 68.9 69.3 68.4- 5.9-
2024-02-25 07:30 pm S 17 20----29.97- 68.9 69.1-- 5.9-
2024-02-25 07:24 pm S 18 23----29.97- 68.9 69.1-- 5.9-
2024-02-25 07:18 pm S 17 21----29.96- 68.9 69.3 68.4- 5.9-
2024-02-25 07:12 pm S 17 21----29.96- 68.7 69.6 68.2- 5.9-
2024-02-25 07:06 pm S 19 22----29.96- 68.9 70.0 68.4- 5.9-
2024-02-25 07:00 pm S 16 19----29.96+0.00- 70.7-- 5.9-
2024-02-25 06:54 pm S 17 20----29.96-- 71.2-- 5.9-
2024-02-25 06:48 pm S 18 21----29.96- 68.9 70.7 68.4- 5.9-
2024-02-25 06:42 pm S 17 21----29.96- 68.9 70.5 68.4- 5.9-
2024-02-25 06:36 pm S 17 21----29.96- 68.9 70.0 68.2- 5.9-
2024-02-25 06:30 pm S 19 22----29.95- 68.9 69.8 68.2- 5.9-
2024-02-25 06:24 pm S 18 21----29.96- 68.9 69.6 68.2- 5.9-
2024-02-25 06:18 pm S 18 22----29.96-- 69.8-- 5.9-
2024-02-25 06:12 pm S 18 21----29.96-- 69.6-- 5.9-
2024-02-25 06:06 pm S 18 21----29.96-- 70.0-- 5.9-
2024-02-25 06:00 pm S 17 20------- 70.2-- 5.9-
2024-02-25 05:54 pm S 17 20------- 70.2-- 5.9-
2024-02-25 05:48 pm S 17 20----29.96- 69.1 70.2 67.8- 5.9-
2024-02-25 05:42 pm S 17 21----29.96- 69.1 70.2 67.8- 5.9-
2024-02-25 05:36 pm S 18 21----29.96- 69.1 70.0 67.8- 5.9-
2024-02-25 05:30 pm S 17 20----29.96- 69.3 70.2 67.8- 5.9-
2024-02-25 05:24 pm S 17 20----29.96- 69.1 70.2 67.6- 5.9-
2024-02-25 05:00 pm S 17 20----29.96- 69.6 70.2 67.3- 5.9-
2024-02-25 04:54 pm S 18 21----29.96- 70.0 69.6 67.5- 5.9-
2024-02-25 04:48 pm S 17 22----29.96- 69.8 69.3 67.3- 5.9-
2024-02-25 04:42 pm S 17 21----29.96- 69.8 69.6 67.3- 5.9-
2024-02-25 04:36 pm S 16 21----29.96- 69.8 69.6 67.3- 5.9-
2024-02-25 04:30 pmSSE 17 20----29.96- 70.0 69.8 67.1- 5.9-
2024-02-25 04:24 pmSSE 16 20----29.96- 70.0 70.2 67.3- 5.9-
2024-02-25 04:18 pmSSE 14 20----29.96- 70.5 70.5 67.5- 5.9-
2024-02-25 04:12 pmSSE 16 21----29.97- 70.5 71.2 67.5- 5.9-
2024-02-25 04:06 pm S 16 20----29.96- 70.7 72.0 67.6- 5.9-
2024-02-25 04:00 pm S 16 20----29.96-0.08 70.5 71.1 67.5- 5.9-
2024-02-25 03:54 pm S 18 22----29.97- 70.5 70.2 67.3- 5.9-
2024-02-25 03:48 pmSSE 17 19----29.97-- 70.0-- 5.9-
2024-02-25 03:42 pmSSE 17 19----29.97-- 69.8-- 5.9-
2024-02-25 03:36 pmSSE 16 18----29.97-- 69.6-- 5.9-
2024-02-25 03:30 pm-------29.97-- 69.6----
2024-02-25 03:24 pm-------29.98-- 69.4----
2024-02-25 03:18 pmSSE 14 18----29.98- 70.9 69.3 67.5- 5.9-
2024-02-25 03:12 pmSSE 14 19----29.98- 70.9 69.3 67.3- 5.9-
2024-02-25 03:06 pmSSE 14 18----29.98- 70.9 68.9 67.6- 5.9-
2024-02-25 03:00 pmSSE 15 19----29.98-0.08- 68.5-- 5.9-
2024-02-25 02:54 pmSSE 15 18----29.99-- 68.2-- 5.9-
2024-02-25 02:48 pmSSE 15 18----29.99- 71.4 68.2 68.0- 5.9-
2024-02-25 02:42 pmSSE 14 18----29.99- 71.6 68.2 68.4- 5.9-
2024-02-25 02:36 pmSSE 14 18----29.99- 71.2 68.2 67.8- 5.9-
2024-02-25 02:30 pmSSE 15 19----29.99- 71.2 68.0 68.0- 5.9-
2024-02-25 02:24 pmSSE 15 19----29.99- 70.7 68.0 67.6- 5.9-
2024-02-25 02:18 pmSSE 15 19----30.00-- 68.0-- 5.9-
2024-02-25 02:12 pmSSE 15 18----30.00-- 67.8-- 5.9-
2024-02-25 02:06 pmSSE 15 19----30.00-- 67.8-- 5.9-
2024-02-25 02:00 pmSSE 15 18------- 67.8-- 5.9-
2024-02-25 01:54 pmSSE 15 18------- 67.8-- 5.9-
2024-02-25 01:48 pmSSE 16 18----30.01- 71.2 68.2 68.4- 5.9-
2024-02-25 01:42 pmSSE 15 18----30.02- 71.1 68.4 68.0- 5.9-
2024-02-25 01:36 pmSSE 16 19----30.02- 71.2 68.2 68.2- 5.9-
2024-02-25 01:30 pmSSE 16 18----30.02- 71.2 67.3----
2024-02-25 01:24 pmSSE 16 19----30.02- 70.9 67.3----
2024-02-25 01:18 pmSSE 16 19----30.03- 71.2 67.5 68.2- 5.9-
2024-02-25 01:12 pmSSE 16 18----30.03- 71.4 67.5 68.5- 5.9-
2024-02-25 01:06 pmSSE 16 18----30.03- 71.8 67.3 68.9- 5.9-
2024-02-25 01:00 pmSSE 15 17----30.04-0.06 71.1 67.3 68.0- 5.9-
2024-02-25 12:54 pmSSE 14 16----30.04- 70.9 67.5 68.2- 5.9-
2024-02-25 12:48 pmSSE 13 15----30.05- 70.5 67.6 68.0- 5.9-
2024-02-25 12:42 pmSSE 14 15----30.05- 70.7 67.8 68.0- 5.9-
2024-02-25 12:36 pmSSE 13 15----30.05- 70.9 67.8 68.0- 5.9-
2024-02-25 12:30 pmSSE 13 15----30.05-- 67.6-- 5.9-
2024-02-25 12:24 pm SE 14 16----30.06-- 67.6-- 5.9-
2024-02-25 12:18 pmSSE 14 16----30.06- 71.2 67.6 68.4- 5.9-
2024-02-25 12:12 pmSSE 14 16----30.06- 70.9 67.8 68.2- 5.9-
2024-02-25 12:06 pmSSE 12 15----30.06- 71.1 67.8 68.4- 5.9-
2024-02-25 12:00 pmSSE 12 15----30.07-0.04 71.1 68.0-- 5.9-
2024-02-25 11:54 amSSE 15 17----30.07- 70.3 68.0-- 5.9-
2024-02-25 11:48 amSSE 13 15----30.07- 70.9 67.6 68.2- 5.9-
2024-02-25 11:42 amSSE 12 14----30.08- 70.9 67.5 68.0- 5.9-
2024-02-25 11:36 amSSE 11 16----30.09- 71.2 67.8 68.4- 5.9-
2024-02-25 11:30 amSSE 13 17----30.08- 70.7 68.0 68.2- 5.9-
2024-02-25 11:24 am S 15 19----30.08- 70.3 67.5 68.2- 5.9-
2024-02-25 11:18 am S 15 18------ 70.2-----
2024-02-25 11:12 am S 14 17----30.09- 70.2 66.9 67.8- 5.9-
2024-02-25 11:06 am S 13 15----30.09- 70.3 66.9 68.0- 5.9-
2024-02-25 11:00 amSSE 12 14----30.09+0.00 70.0 66.9 67.8- 5.9-
2024-02-25 10:54 amSSE 9 11----30.10- 70.3 67.3 68.0- 5.9-
2024-02-25 10:48 amSSE 10 13----30.09- 70.2 67.3 68.0- 5.9-
2024-02-25 10:42 amSSE 10 13----30.10- 70.2 67.1 68.5- 5.9-
2024-02-25 10:36 am S 11 14----30.10- 70.3 67.1 68.9- 5.9-
2024-02-25 10:30 am S 11 14----30.10- 69.6 66.9 68.2- 5.9-
2024-02-25 10:24 am S 11 14----30.10- 69.8 66.7 68.4- 5.9-
2024-02-25 10:18 amSSE 12 13----30.10-- 66.6-- 5.9-
2024-02-25 10:12 amSSE 9 12----30.10-- 66.4-- 5.9-
2024-02-25 10:06 amSSE 8 11----30.10-- 66.4-- 5.9-
2024-02-25 10:00 am S 9 12----30.10+0.03- 66.2-- 5.9-
2024-02-25 09:54 am S 8 12----30.10-- 66.4-- 5.9-
2024-02-25 09:48 am S 8 12----30.10- 69.1 66.2 68.5- 5.9-
2024-02-25 09:42 am S 8 11----30.11- 68.9 66.4 68.4- 5.9-
2024-02-25 09:36 am S 8 11----30.11- 68.4 66.2 67.8- 5.9-
2024-02-25 09:30 amSSW 8 11------ 68.5 66.2 68.0- 5.9-
2024-02-25 09:24 am S 6 10------ 68.4 66.2 68.0- 5.9-
2024-02-25 09:18 am S 6 9----30.10-- 66.2-- 5.9-
2024-02-25 09:12 amSSW 6 10----30.10-- 66.2-- 5.9-
2024-02-25 09:06 amSSW 8 10----30.10-- 66.2-- 5.9-
2024-02-25 09:00 amSSW 7 9----30.11+0.04- 66.0-- 5.9-
2024-02-25 08:54 amSSW 6 9----30.10-- 66.0-- 5.9-
2024-02-25 08:48 am-------30.10- 67.5 66.0 67.5- 5.9-
2024-02-25 08:42 am-------30.10- 67.3 66.0 67.3- 5.9-
2024-02-25 08:36 am-------30.09- 67.1 65.8 67.1- 5.9-
2024-02-25 08:30 am S 7 9------ 66.9 65.8 66.9- 5.9-
2024-02-25 08:24 am S 7 9------ 66.6 65.8 66.6- 5.9-
2024-02-25 08:18 am S 9 9----30.09-- 65.8-- 5.9-
2024-02-25 08:12 am S 7 8----30.09-- 65.8-- 5.9-
2024-02-25 08:06 am S 6 6----30.09-- 65.8-- 5.9-
2024-02-25 08:00 am S 4 6----30.09-- 65.8-- 5.9-
2024-02-25 07:54 am S 5 6----30.09-- 65.8-- 5.9-
2024-02-25 07:48 am S 4 5----30.09- 65.8- 65.8- 5.9-
2024-02-25 07:42 am S 5 6----30.09- 65.7- 65.7- 5.9-
2024-02-25 07:36 am S 5 6----30.09- 65.5- 65.5- 5.9-
2024-02-25 07:30 am S 5 6----30.09- 65.3 65.8 65.3- 5.9-
2024-02-25 07:24 am S 6 7----30.08- 65.1 66.0 65.1- 5.9-
2024-02-25 07:18 am S 7 8----30.07- 64.9 66.0 64.9- 5.9-
2024-02-25 07:12 am S 6 7----30.07- 64.8 66.0 64.8- 5.9-
2024-02-25 07:06 am S 5 7----30.07- 64.8 66.0 64.8- 5.9-
2024-02-25 07:00 am S 5 7----30.07+0.00- 65.8-- 5.9-
2024-02-25 06:54 amSSE 7 9----30.07-- 65.8-- 5.9-
2024-02-25 06:48 amSSE 8 9----30.06- 64.8 65.8 64.8---
2024-02-25 06:42 amSSE 8 9----30.06- 64.9 65.8 64.9---
2024-02-25 06:36 amSSE 8 9----30.06- 64.9 65.8 64.9---
2024-02-25 06:30 amSSE 6 8----30.07- 64.8 65.8 64.8- 5.9-
2024-02-25 06:24 am S 6 8----30.07- 64.8 65.8 64.8- 5.9-
2024-02-25 06:18 am-------30.07- 64.8 65.8 64.8- 5.9-
2024-02-25 06:12 am-------30.06- 64.8 65.8 64.8- 5.9-
2024-02-25 06:06 am-------30.07- 64.8 65.8 64.8- 5.9-
2024-02-25 06:00 amSSE 7 9----30.06-0.01 64.8 65.7 64.8- 5.9-
2024-02-25 05:54 amSSE 7 8----30.06- 64.8 65.7 64.8- 5.9-
2024-02-25 05:48 am S 7 9----30.06- 64.8 65.7 64.8- 5.9-
2024-02-25 05:42 amSSE 8 9----30.06- 64.6 65.7 64.6- 5.9-
2024-02-25 05:36 amSSE 8 9----30.06- 64.6 65.7 64.6- 5.9-
2024-02-25 05:30 amSSE 8 9----30.06-- 65.7-- 5.9-
2024-02-25 05:24 am S 7 9----30.06-- 65.7-- 5.9-
2024-02-25 05:18 am S 7 9---------- 5.9-
2024-02-25 05:12 amSSE 7 10---------- 5.9-
2024-02-25 05:06 am S 9 11---------- 5.9-
2024-02-25 05:00 am S 10 11---------- 5.9-
2024-02-25 04:54 am S 10 11---------- 5.9-
2024-02-25 04:48 am S 10 11----30.06- 64.6 65.8 64.6- 5.9-
2024-02-25 04:42 am S 8 11----30.06- 64.6 65.8 64.6- 5.9-
2024-02-25 04:36 am S 8 11----30.06- 64.6 65.8 64.6- 5.9-
2024-02-25 04:30 amSSE 9 11----30.06- 64.8 65.8 64.8- 5.9-
2024-02-25 04:24 amSSE 9 10----30.06- 64.8 65.8 64.8- 5.9-
2024-02-25 04:18 amSSE 9 9----30.06- 64.8 65.8 64.8- 5.9-
2024-02-25 04:12 amSSE 9 10----30.06- 64.8 65.8 64.6- 5.9-
2024-02-25 04:06 amSSE 8 10----30.06- 64.8 65.8 64.6- 5.9-
2024-02-25 04:00 amSSE 8 10----30.07-0.04 64.9 65.8 64.6- 5.9-
2024-02-25 03:54 am S 9 10----30.07- 64.9 65.8 64.4- 5.9-